Weather History for EGUW - November, 2012

Change the Weather History Date:

Wednesday, November 21, 2012

  Actual Average (EGSC) Record (EGSC)
Temperature  
Mean Temperature 45 °F -  
Max Temperature 49 °F 46 °F 53 °F (2001)
Min Temperature 41 °F 39 °F 28 °F (2005)
Degree Days  
Heating Degree Days 20    
Moisture  
Dew Point 45 °F    
Average Humidity 93    
Maximum Humidity 100    
Minimum Humidity 87    
Precipitation  
Precipitation 0.16 in - - ()
Sea Level Pressure  
Sea Level Pressure 29.75 in    
Wind  
Wind Speed 10 mph ()    
Max Wind Speed 26 mph    
Max Gust Speed 36 mph    
Visibility 5.9 miles    
Events Rain    
Averages and records for this station are not official NWS values.
T = Trace of Precipitation, MM = Missing Value Source: Averaged Metar Reports

Daily Weather History Graph

Daily Weather History Graph

Search for Another Location

Airport or City:

Trip Planner

Search our weather history database for the weather conditions in past years. The results will help you decide how hot, cold, wet, or windy it might be!

Date:

Astronomy

Nov. 21, 2012 Rise Set
Actual Time 7:27 AM GMT 3:56 PM GMT
Civil Twilight 6:48 AM GMT 4:34 PM GMT
Nautical Twilight 6:06 AM GMT 5:16 PM GMT
Astronomical Twilight 5:26 AM GMT 5:57 PM GMT
Moon 12:49 PM GMT (11/21) No Moon Set
Length of Visible Light 9h 46m
Length of Day
8h 29m
First Quarter, 59% of the Moon is Illuminated
Nov 21
First Quarter
Nov 28
Full
Dec 6
Last Quarter
Dec 13
New
Dec 20
First Quarter

Hourly Weather History & Observations

Time (GMT) Temp. Windchill Dew Point Humidity Pressure Visibility Wind Dir Wind Speed Gust Speed Precip Events Conditions
12:50 AM 50.0 °F - 48.2 °F 94% 29.80 in - South 10.4 mph - N/A   Clear
1:50 AM 50.0 °F - 48.2 °F 94% 29.77 in - SSE 11.5 mph - N/A   Clear
2:50 AM 49 °F - 47 °F 92% 29.78 in 9 mi SSE 10.4 mph - -   Overcast
2:50 AM 50.0 °F - 48.2 °F 94% 29.77 in - SSE 10.4 mph - N/A   Clear
3:50 AM 48.2 °F - 46.4 °F 93% 29.74 in - SSE 12.7 mph - N/A   Clear
4:50 AM 48.2 °F - 46.4 °F 93% 29.74 in - SSE 11.5 mph - N/A   Clear
5:50 AM 48 °F - 46 °F 90% 29.74 in 6 mi SE 10.4 mph - -   Overcast
5:50 AM 48.2 °F - 46.4 °F 93% 29.71 in - SE 10.4 mph - N/A   Clear
6:50 AM 48.2 °F - 46.4 °F 93% 29.71 in 3.7 mi SE 12.7 mph - N/A Rain Light Rain
7:50 AM 48.2 °F - 46.4 °F 93% 29.71 in 4.3 mi SSE 9.2 mph - N/A Rain Light Rain
8:50 AM 48 °F - 46 °F 89% 29.70 in 6 mi SSE 9.2 mph - - Rain Light Rain
8:50 AM 48.2 °F - 46.4 °F 93% 29.68 in 5.6 mi SSE 9.2 mph - N/A Rain Light Rain
9:50 AM 46.4 °F 41.5 °F 44.6 °F 93% 29.68 in 5.6 mi SSE 10.4 mph - N/A Rain Light Rain
10:50 AM 46.4 °F 41.5 °F 44.6 °F 93% 29.65 in 4.3 mi SSE 10.4 mph - N/A Rain Light Rain
11:50 AM 47 °F - 46 °F 93% 29.65 in 5 mi SSE 12.7 mph - - Rain Light Rain
11:50 AM 46.4 °F 40.7 °F 46.4 °F 100% 29.62 in 5.0 mi SSE 12.7 mph - N/A Rain Light Rain
12:50 PM 48.2 °F - 46.4 °F 93% 29.59 in 5.0 mi SSE 9.2 mph - N/A   Overcast
1:50 PM 50.0 °F - 48.2 °F 94% 29.56 in 4.3 mi SSE 10.4 mph - N/A   Light Drizzle
2:50 PM 49 °F - 48 °F 97% 29.58 in 3 mi SE 5.8 mph - - Rain Light Drizzle
2:50 PM 50.0 °F - 48.2 °F 94% 29.56 in 2.8 mi SE 5.8 mph - N/A   Light Drizzle
3:50 PM 48.2 °F - 48.2 °F 100% 29.59 in 4.3 mi South 1.2 mph - N/A Rain Light Rain
4:50 PM 44.6 °F 35.3 °F 42.8 °F 93% 29.68 in 6.2 mi WNW 26.5 mph - N/A Rain Light Rain
5:50 PM 44 °F - 42 °F 91% 29.80 in 5 mi West 24.2 mph - - Rain Rain
5:50 PM 44.6 °F 35.7 °F 42.8 °F 93% 29.77 in 5.0 mi West 24.2 mph 35.7 mph N/A Rain Rain
6:50 PM 44.6 °F 36.9 °F 41.0 °F 87% 29.83 in 6.2 mi West 18.4 mph - N/A   Mostly Cloudy
7:50 PM 42.8 °F 35.4 °F 41.0 °F 93% 29.89 in - West 15.0 mph - N/A   Clear
8:50 PM 41 °F - 39 °F 92% 29.95 in 19 mi WSW 11.5 mph - -   Partly Cloudy
8:50 PM 41.0 °F 34.3 °F 39.2 °F 93% 29.92 in - WSW 11.5 mph - N/A   Clear
9:50 PM 41.0 °F 35.8 °F 39.2 °F 93% 29.95 in - WSW 8.1 mph - N/A   Clear
10:50 PM 41.0 °F 35.2 °F 41.0 °F 100% 29.95 in - SW 9.2 mph - N/A   Clear
11:50 PM 41 °F - 40 °F 94% 29.99 in 9 mi SSW 9.2 mph - -   Partly Cloudy
11:50 PM 41.0 °F 35.2 °F 39.2 °F 93% 29.98 in - SSW 9.2 mph - N/A   Clear